Hourly Data Report for September 19, 2020

OTTAWA INTL A
ONTARIO
Current Station Operator: NAVCAN

45°19'00.000" N
75°40'00.000" W
114.90 m
6106001
71628
YOW

Download Data

Hourly Data (September 2020)
Hourly Data Report for September 19, 2020
TIME Temp Definition
°C
Dew Point Definition
°C
Rel Hum Definition
%
Wind Dir Definition
10's deg

Wind Spd Definition
km/h
Visibility Definition
km
Stn Press Definition
kPa
Hmdx Definition


Wind Chill Definition


Weather Definition


00:00 5.7 -0.7 64 34 14 24.1 101.31     LegendNANA
01:00 2.8 -0.7 78 32 14 24.1 101.35     Clear
02:00 3.2 0.1 80 30 12 24.1 101.38     LegendNANA
03:00 1.0 -1.0 86 30 12 24.1 101.41     LegendNANA
04:00 0.4 -1.0 90 29 10 24.1 101.43     Clear
05:00 0.6 -0.4 93 30 10 24.1 101.46     LegendNANA
06:00 0.3 -0.4 95 36 2 24.1 101.54     LegendNANA
07:00 2.7 1.7 94 30 9 24.1 101.59     Mainly Clear
08:00 6.2 3.4 82 31 8 24.1 101.63     LegendNANA
09:00 8.3 1.1 60 31 11 24.1 101.68     LegendNANA
10:00 9.7 -2.5 42 34 14 24.1 101.69     Mainly Clear
11:00 10.4 -0.3 47 34 7 24.1 101.68     LegendNANA
12:00 11.7 -2.6 37   0 24.1 101.66     LegendNANA
13:00 12.3 -2.2 36 36 3 24.1 101.61     Mainly Clear
14:00 12.8 -2.6 34 26 5 24.1 101.58     LegendNANA
15:00 13.5 -1.9 34 29 8 24.1 101.55     LegendNANA
16:00 13.1 -2.3 34 29 17 24.1 101.54     Mainly Clear
17:00 12.3 -1.3 39 28 13 24.1 101.55     LegendNANA
18:00 9.5 -1.3 47 26 7 24.1 101.54     LegendNANA
19:00 8.6 -1.5 49 20 5 24.1 101.58     Mostly Cloudy
20:00 4.7 0.3 73 20 7 24.1 101.62     LegendNANA
21:00 7.2 2.3 71 22 5 24.1 101.64     LegendNANA
22:00 5.7 2.4 79 20 3 24.1 101.68     Mostly Cloudy
23:00 3.7 1.7 87 25 6 24.1 101.73     LegendNANA

Notes on Data Quality.

Legend

  • E = Estimated
  • M = Missing
  • NA = Not Available*
  • [empty] = Indicates an unobserved value
Date modified: